QPF
0.02 0.02 0.02 0.02 0.02 0.03 0.03 0.03 0.04 0.05 0.05 0.05 0.04 0.05 0.05 0.04 0.04 0.03 0.03 0.04 0.03 0.04 0.05 0.05 0.06 0.06 0.06 0.06 0.08 0.11 0.10 0.07 0.09 0.13 0.15 0.15 0.11 0.10 0.10 0.09 0.08 0.05 0.03
0.01 0.01 0.01 0.01 0.01 0.02 0.03 0.03 0.04 0.04 0.04 0.04 0.04 0.04 0.04 0.03 0.03 0.02 0.03 0.03 0.03 0.03 0.03 0.04 0.04 0.04 0.05 0.06 0.08 0.10 0.10 0.09 0.10 0.12 0.16 0.16 0.15 0.12 0.09 0.10 0.08 0.05 0.04
0.01 0.01 0.01 0.01 0.01 0.01 0.02 0.02 0.02 0.03 0.03 0.03 0.03 0.04 0.04 0.04 0.03 0.02 0.03 0.03 0.02 0.02 0.03 0.03 0.03 0.03 0.04 0.05 0.07 0.08 0.07 0.08 0.11 0.11 0.14 0.13 0.12 0.11 0.10 0.10 0.08 0.06 0.06
0.01 0.01 0.02 0.01 0.01 0.01 0.01 0.02 0.02 0.03 0.03 0.03 0.03 0.04 0.04 0.04 0.04 0.04 0.04 0.05 0.04 0.03 0.03 0.03 0.04 0.04 0.04 0.05 0.05 0.07 0.08 0.08 0.10 0.12 0.13 0.10 0.08 0.09 0.10 0.11 0.10 0.08 0.06
0.01 0.01 0.01 0.01 0.01 0.01 0.01 0.01 0.02 0.03 0.03 0.03 0.05 0.06 0.05 0.04 0.04 0.04 0.04 0.04 0.04 0.03 0.03 0.04 0.05 0.05 0.06 0.06 0.06 0.07 0.07 0.08 0.08 0.07 0.08 0.09 0.10 0.10 0.09 0.09 0.11 0.11 0.08
0.01 0.01 0.01 0.01 0.01 0.01 0.01 0.01 0.02 0.03 0.03 0.04 0.04 0.05 0.04 0.05 0.05 0.06 0.05 0.03 0.03 0.04 0.04 0.05 0.06 0.05 0.06 0.06 0.06 0.07 0.08 0.09 0.08 0.08 0.08 0.08 0.08 0.08 0.08 0.09 0.10 0.11 0.08
0.01 0.01 0.01 0.01 0.01 0.01 0.01 0.01 0.02 0.02 0.02 0.03 0.04 0.03 0.04 0.05 0.06 0.07 0.06 0.05 0.05 0.05 0.05 0.06 0.06 0.05 0.05 0.05 0.07 0.07 0.06 0.07 0.08 0.08 0.08 0.09 0.08 0.08 0.08 0.08 0.09 0.09 0.08
0.00 0.00 0.00 0.01 0.01 0.01 0.01 0.01 0.02 0.02 0.02 0.02 0.03 0.03 0.04 0.04 0.04 0.06 0.06 0.07 0.06 0.06 0.07 0.07 0.06 0.04 0.04 0.05 0.06 0.07 0.07 0.07 0.08 0.08 0.09 0.09 0.09 0.08 0.07 0.07 0.09 0.09 0.09
0.00 0.00 0.01 0.01 0.01 0.03 0.04 0.02 0.02 0.03 0.02 0.02 0.03 0.03 0.03 0.04 0.05 0.06 0.07 0.07 0.08 0.07 0.05 0.06 0.07 0.06 0.05 0.07 0.07 0.07 0.07 0.08 0.09 0.10 0.11 0.09 0.08 0.08 0.07 0.07 0.08 0.08 0.08
0.00 0.01 0.01 0.01 0.01 0.02 0.03 0.03 0.03 0.03 0.03 0.03 0.03 0.03 0.04 0.05 0.05 0.06 0.06 0.06 0.07 0.05 0.05 0.08 0.09 0.07 0.07 0.08 0.09 0.10 0.10 0.11 0.10 0.10 0.12 0.11 0.08 0.07 0.07 0.08 0.09 0.09 0.09
0.00 0.01 0.01 0.01 0.01 0.02 0.04 0.04 0.04 0.03 0.03 0.03 0.04 0.05 0.05 0.05 0.05 0.04 0.04 0.05 0.05 0.04 0.07 0.09 0.09 0.08 0.07 0.08 0.08 0.07 0.09 0.09 0.08 0.10 0.11 0.11 0.09 0.08 0.07 0.08 0.10 0.11 0.11
0.01 0.01 0.01 0.01 0.01 0.02 0.06 0.10 0.07 0.05 0.05 0.04 0.04 0.04 0.05 0.05 0.05 0.04 0.04 0.04 0.04 0.04 0.06 0.07 0.07 0.07 0.06 0.07 0.07 0.07 0.08 0.10 0.09 0.08 0.08 0.08 0.08 0.09 0.09 0.10 0.12 0.14 0.14
0.01 0.01 0.01 0.01 0.01 0.02 0.05 0.12 0.16 0.08 0.04 0.04 0.03 0.05 0.06 0.06 0.05 0.04 0.04 0.04 0.04 0.05 0.06 0.07 0.06 0.07 0.07 0.07 0.06 0.06 0.07 0.07 0.07 0.06 0.05 0.06 0.06 0.07 0.08 0.09 0.09 0.10 0.11
0.02 0.02 0.01 0.01 0.01 0.01 0.02 0.02 0.04 0.04 0.04 0.03 0.04 0.06 0.06 0.05 0.04 0.04 0.04 0.04 0.04 0.05 0.06 0.07 0.07 0.07 0.07 0.07 0.06 0.05 0.05 0.05 0.07 0.07 0.06 0.07 0.08 0.08 0.08 0.09 0.09 0.10 0.12
0.02 0.02 0.03 0.03 0.02 0.02 0.02 0.02 0.02 0.03 0.04 0.04 0.05 0.06 0.06 0.05 0.05 0.04 0.05 0.06 0.05 0.05 0.05 0.05 0.05 0.05 0.05 0.04 0.05 0.05 0.04 0.04 0.06 0.07 0.07 0.06 0.07 0.09 0.09 0.08 0.09 0.11 0.13
0.02 0.02 0.02 0.03 0.01 0.01 0.02 0.02 0.02 0.02 0.02 0.03 0.03 0.04 0.04 0.03 0.03 0.03 0.04 0.04 0.04 0.04 0.04 0.04 0.03 0.04 0.03 0.03 0.04 0.05 0.04 0.04 0.04 0.05 0.06 0.05 0.05 0.05 0.06 0.05 0.08 0.11 0.11
0.02 0.02 0.02 0.02 0.01 0.01 0.02 0.03 0.02 0.02 0.02 0.02 0.02 0.02 0.03 0.03 0.03 0.03 0.03 0.03 0.04 0.05 0.05 0.04 0.04 0.04 0.05 0.03 0.04 0.04 0.04 0.04 0.04 0.04 0.04 0.04 0.03 0.04 0.06 0.06 0.06 0.07 0.10
0.04 0.03 0.02 0.01 0.01 0.01 0.01 0.03 0.03 0.02 0.02 0.02 0.02 0.02 0.03 0.03 0.04 0.04 0.04 0.04 0.05 0.05 0.04 0.04 0.05 0.06 0.04 0.03 0.03 0.04 0.04 0.04 0.04 0.04 0.04 0.04 0.03 0.04 0.07 0.09 0.08 0.09 0.08
0.06 0.05 0.03 0.02 0.01 0.01 0.01 0.03 0.03 0.02 0.02 0.02 0.01 0.02 0.02 0.03 0.04 0.03 0.04 0.05 0.06 0.06 0.04 0.04 0.05 0.07 0.04 0.03 0.03 0.03 0.03 0.04 0.04 0.05 0.04 0.05 0.04 0.04 0.06 0.08 0.09 0.08 0.06
0.04 0.05 0.04 0.03 0.02 0.02 0.03 0.03 0.02 0.01 0.02 0.02 0.02 0.02 0.02 0.02 0.03 0.03 0.04 0.05 0.07 0.06 0.04 0.04 0.06 0.07 0.06 0.03 0.03 0.03 0.03 0.04 0.05 0.06 0.06 0.06 0.05 0.05 0.04 0.05 0.05 0.05 0.05
0.03 0.03 0.02 0.02 0.02 0.02 0.03 0.03 0.03 0.02 0.01 0.02 0.02 0.01 0.01 0.02 0.02 0.03 0.04 0.05 0.06 0.06 0.05 0.05 0.06 0.07 0.05 0.04 0.03 0.03 0.03 0.05 0.05 0.05 0.05 0.06 0.05 0.04 0.03 0.04 0.05 0.05 0.05
0.03 0.04 0.02 0.01 0.03 0.04 0.04 0.05 0.05 0.03 0.02 0.02 0.02 0.02 0.02 0.02 0.01 0.02 0.03 0.06 0.07 0.06 0.05 0.05 0.05 0.06 0.05 0.03 0.03 0.02 0.02 0.04 0.04 0.04 0.04 0.03 0.03 0.03 0.03 0.03 0.04 0.05 0.05
0.02 0.02 0.02 0.02 0.02 0.02 0.02 0.04 0.04 0.02 0.02 0.03 0.03 0.03 0.04 0.03 0.02 0.03 0.03 0.04 0.05 0.04 0.03 0.04 0.05 0.05 0.04 0.03 0.03 0.02 0.02 0.03 0.04 0.04 0.03 0.03 0.03 0.03 0.03 0.04 0.04 0.03 0.04
0.02 0.03 0.03 0.02 0.02 0.02 0.02 0.03 0.03 0.03 0.03 0.04 0.03 0.03 0.04 0.03 0.03 0.03 0.02 0.02 0.04 0.04 0.03 0.03 0.04 0.04 0.04 0.04 0.04 0.03 0.04 0.04 0.05 0.05 0.04 0.03 0.03 0.03 0.05 0.04 0.03 0.03 0.04
0.01 0.02 0.03 0.02 0.02 0.01 0.02 0.02 0.03 0.04 0.04 0.04 0.04 0.04 0.03 0.03 0.02 0.02 0.02 0.03 0.02 0.02 0.03 0.03 0.03 0.03 0.04 0.03 0.03 0.02 0.03 0.04 0.05 0.04 0.03 0.04 0.05 0.05 0.05 0.05 0.05 0.05 0.05
0.02 0.02 0.02 0.02 0.02 0.02 0.02 0.03 0.03 0.04 0.04 0.03 0.04 0.04 0.03 0.02 0.01 0.02 0.02 0.02 0.01 0.01 0.01 0.02 0.02 0.02 0.02 0.02 0.01 0.01 0.01 0.02 0.03 0.04 0.04 0.05 0.05 0.05 0.05 0.05 0.05 0.05 0.05
MSLP
1004.52 1004.58 1004.74 1004.99 1005.32 1005.72 1006.19 1006.69 1007.21 1007.72 1008.19 1008.62 1008.97 1009.24 1009.45 1009.58 1009.67 1009.74 1009.80 1009.89 1010.01 1010.17 1010.37 1010.62 1010.92 1011.28 1011.72 1012.24 1012.84 1013.53 1014.26 1015.01 1015.72 1016.33 1016.78 1017.03 1017.08 1016.94 1016.64 1016.27 1015.90 1015.61 1015.47
1004.87 1004.89 1004.96 1005.09 1005.30 1005.57 1005.92 1006.33 1006.78 1007.27 1007.74 1008.18 1008.56 1008.85 1009.06 1009.20 1009.29 1009.36 1009.43 1009.53 1009.66 1009.84 1010.06 1010.32 1010.62 1010.97 1011.37 1011.85 1012.41 1013.05 1013.78 1014.54 1015.30 1015.98 1016.54 1016.91 1017.08 1017.03 1016.80 1016.46 1016.08 1015.73 1015.51
1005.16 1005.18 1005.22 1005.28 1005.37 1005.53 1005.76 1006.06 1006.44 1006.86 1007.31 1007.74 1008.11 1008.42 1008.64 1008.79 1008.89 1008.97 1009.05 1009.16 1009.31 1009.51 1009.75 1010.02 1010.31 1010.64 1011.00 1011.42 1011.92 1012.51 1013.18 1013.92 1014.69 1015.42 1016.06 1016.54 1016.84 1016.92 1016.81 1016.55 1016.22 1015.90 1015.65
1005.39 1005.46 1005.50 1005.53 1005.57 1005.63 1005.76 1005.95 1006.23 1006.58 1006.97 1007.36 1007.72 1008.02 1008.24 1008.40 1008.51 1008.60 1008.69 1008.81 1008.98 1009.20 1009.45 1009.73 1010.02 1010.32 1010.65 1011.01 1011.44 1011.95 1012.55 1013.23 1013.97 1014.71 1015.40 1015.97 1016.38 1016.60 1016.64 1016.52 1016.30 1016.06 1015.85
1005.57 1005.72 1005.82 1005.86 1005.87 1005.88 1005.92 1006.02 1006.19 1006.45 1006.75 1007.08 1007.40 1007.67 1007.89 1008.05 1008.16 1008.25 1008.36 1008.49 1008.67 1008.90 1009.16 1009.44 1009.74 1010.03 1010.32 1010.64 1011.00 1011.43 1011.95 1012.55 1013.23 1013.93 1014.63 1015.25 1015.76 1016.11 1016.30 1016.35 1016.29 1016.17 1016.06
1005.72 1005.97 1006.14 1006.24 1006.26 1006.23 1006.21 1006.22 1006.29 1006.44 1006.65 1006.89 1007.14 1007.38 1007.57 1007.71 1007.82 1007.91 1008.01 1008.15 1008.34 1008.57 1008.85 1009.14 1009.45 1009.74 1010.03 1010.32 1010.63 1010.99 1011.42 1011.93 1012.52 1013.16 1013.82 1014.45 1015.02 1015.48 1015.82 1016.03 1016.14 1016.19 1016.22
1005.86 1006.20 1006.46 1006.62 1006.67 1006.63 1006.56 1006.49 1006.45 1006.48 1006.58 1006.72 1006.90 1007.07 1007.22 1007.33 1007.43 1007.51 1007.61 1007.75 1007.94 1008.18 1008.47 1008.79 1009.12 1009.43 1009.73 1010.02 1010.31 1010.62 1010.97 1011.39 1011.88 1012.43 1013.03 1013.63 1014.22 1014.75 1015.21 1015.58 1015.87 1016.10 1016.29
1006.00 1006.41 1006.75 1006.96 1007.03 1006.99 1006.87 1006.72 1006.58 1006.49 1006.46 1006.50 1006.57 1006.67 1006.76 1006.85 1006.93 1007.01 1007.10 1007.24 1007.44 1007.69 1008.00 1008.35 1008.71 1009.07 1009.40 1009.71 1010.00 1010.29 1010.59 1010.93 1011.32 1011.78 1012.29 1012.85 1013.42 1013.99 1014.54 1015.04 1015.49 1015.89 1016.25
1006.14 1006.59 1006.97 1007.21 1007.30 1007.24 1007.06 1006.83 1006.58 1006.36 1006.20 1006.12 1006.09 1006.11 1006.16 1006.21 1006.28 1006.35 1006.46 1006.61 1006.81 1007.09 1007.42 1007.80 1008.21 1008.62 1009.01 1009.37 1009.69 1009.98 1010.25 1010.54 1010.85 1011.22 1011.65 1012.14 1012.68 1013.26 1013.86 1014.45 1015.03 1015.59 1016.11
1006.28 1006.74 1007.12 1007.35 1007.42 1007.31 1007.07 1006.74 1006.37 1006.03 1005.75 1005.54 1005.42 1005.37 1005.37 1005.41 1005.48 1005.57 1005.69 1005.87 1006.10 1006.40 1006.76 1007.19 1007.64 1008.11 1008.56 1008.98 1009.34 1009.66 1009.93 1010.19 1010.46 1010.76 1011.11 1011.54 1012.04 1012.61 1013.23 1013.89 1014.57 1015.25 1015.90
1006.43 1006.85 1007.18 1007.37 1007.38 1007.20 1006.87 1006.43 1005.94 1005.48 1005.07 1004.77 1004.56 1004.46 1004.44 1004.48 1004.57 1004.70 1004.86 1005.08 1005.35 1005.69 1006.09 1006.55 1007.05 1007.57 1008.07 1008.54 1008.96 1009.32 1009.61 1009.87 1010.12 1010.38 1010.68 1011.06 1011.52 1012.07 1012.70 1013.40 1014.14 1014.90 1015.66
1006.58 1006.93 1007.18 1007.29 1007.20 1006.93 1006.49 1005.94 1005.34 1004.76 1004.26 1003.86 1003.60 1003.47 1003.44 1003.51 1003.64 1003.83 1004.06 1004.34 1004.66 1005.03 1005.47 1005.96 1006.49 1007.05 1007.59 1008.10 1008.56 1008.95 1009.28 1009.56 1009.81 1010.06 1010.34 1010.69 1011.13 1011.67 1012.30 1013.01 1013.79 1014.60 1015.42
1006.75 1006.99 1007.14 1007.13 1006.93 1006.55 1006.00 1005.34 1004.63 1003.96 1003.38 1002.93 1002.63 1002.49 1002.49 1002.60 1002.80 1003.06 1003.37 1003.71 1004.09 1004.51 1004.98 1005.49 1006.03 1006.59 1007.15 1007.68 1008.16 1008.58 1008.94 1009.24 1009.51 1009.77 1010.06 1010.41 1010.84 1011.37 1012.00 1012.72 1013.51 1014.34 1015.18
1006.92 1007.06 1007.08 1006.95 1006.63 1006.13 1005.47 1004.72 1003.93 1003.19 1002.55 1002.07 1001.76 1001.63 1001.67 1001.84 1002.12 1002.46 1002.85 1003.27 1003.70 1004.16 1004.65 1005.16 1005.69 1006.23 1006.78 1007.30 1007.78 1008.21 1008.58 1008.91 1009.20 1009.49 1009.80 1010.16 1010.60 1011.14 1011.77 1012.49 1013.27 1014.10 1014.95
1007.09 1007.12 1007.03 1006.77 1006.34 1005.73 1004.99 1004.16 1003.31 1002.53 1001.87 1001.37 1001.07 1000.98 1001.06 1001.29 1001.65 1002.07 1002.53 1003.01 1003.50 1003.98 1004.47 1004.97 1005.47 1005.98 1006.48 1006.97 1007.43 1007.85 1008.22 1008.56 1008.87 1009.19 1009.53 1009.92 1010.38 1010.92 1011.56 1012.28 1013.06 1013.87 1014.70
1007.25 1007.19 1006.99 1006.63 1006.09 1005.40 1004.60 1003.72 1002.85 1002.05 1001.38 1000.90 1000.62 1000.56 1000.68 1000.97 1001.38 1001.87 1002.39 1002.92 1003.44 1003.94 1004.42 1004.89 1005.36 1005.82 1006.27 1006.70 1007.12 1007.50 1007.86 1008.20 1008.53 1008.86 1009.23 1009.65 1010.13 1010.70 1011.34 1012.06 1012.83 1013.63 1014.43
1007.39 1007.24 1006.95 1006.51 1005.90 1005.16 1004.32 1003.43 1002.56 1001.77 1001.12 1000.66 1000.41 1000.38 1000.54 1000.86 1001.31 1001.83 1002.38 1002.93 1003.46 1003.97 1004.44 1004.88 1005.30 1005.71 1006.10 1006.49 1006.85 1007.20 1007.54 1007.87 1008.20 1008.55 1008.93 1009.37 1009.87 1010.45 1011.10 1011.82 1012.58 1013.37 1014.15
1007.47 1007.26 1006.91 1006.42 1005.77 1005.01 1004.16 1003.28 1002.44 1001.68 1001.07 1000.64 1000.42 1000.41 1000.58 1000.92 1001.37 1001.89 1002.45 1003.00 1003.52 1004.01 1004.46 1004.88 1005.27 1005.63 1005.99 1006.33 1006.66 1006.98 1007.29 1007.61 1007.93 1008.28 1008.68 1009.12 1009.64 1010.22 1010.88 1011.59 1012.34 1013.12 1013.89
1007.49 1007.25 1006.87 1006.34 1005.69 1004.93 1004.11 1003.27 1002.47 1001.76 1001.19 1000.80 1000.61 1000.60 1000.78 1001.10 1001.53 1002.03 1002.55 1003.08 1003.58 1004.04 1004.47 1004.87 1005.23 1005.58 1005.91 1006.24 1006.55 1006.86 1007.16 1007.47 1007.79 1008.14 1008.53 1008.97 1009.48 1010.06 1010.71 1011.42 1012.16 1012.93 1013.69
1007.45 1007.20 1006.81 1006.29 1005.65 1004.92 1004.14 1003.35 1002.61 1001.97 1001.45 1001.10 1000.93 1000.93 1001.08 1001.37 1001.76 1002.20 1002.68 1003.15 1003.61 1004.05 1004.46 1004.84 1005.21 1005.56 1005.90 1006.23 1006.55 1006.87 1007.18 1007.49 1007.81 1008.16 1008.54 1008.97 1009.47 1010.03 1010.66 1011.35 1012.08 1012.84 1013.60
1007.37 1007.12 1006.75 1006.25 1005.65 1004.96 1004.24 1003.52 1002.85 1002.27 1001.82 1001.50 1001.35 1001.34 1001.48 1001.72 1002.05 1002.43 1002.84 1003.25 1003.66 1004.06 1004.45 1004.83 1005.20 1005.58 1005.95 1006.31 1006.67 1007.02 1007.36 1007.69 1008.02 1008.36 1008.74 1009.15 1009.62 1010.16 1010.76 1011.42 1012.13 1012.88 1013.63
1007.26 1007.05 1006.71 1006.26 1005.70 1005.07 1004.42 1003.77 1003.17 1002.66 1002.26 1001.99 1001.85 1001.84 1001.95 1002.14 1002.41 1002.71 1003.05 1003.40 1003.75 1004.11 1004.48 1004.86 1005.25 1005.66 1006.07 1006.49 1006.90 1007.30 1007.68 1008.04 1008.39 1008.74 1009.10 1009.50 1009.94 1010.44 1011.00 1011.63 1012.31 1013.03 1013.77
1007.16 1007.00 1006.71 1006.31 1005.81 1005.25 1004.66 1004.09 1003.56 1003.11 1002.76 1002.53 1002.41 1002.40 1002.48 1002.63 1002.84 1003.07 1003.34 1003.61 1003.91 1004.23 1004.57 1004.95 1005.36 1005.80 1006.27 1006.74 1007.21 1007.66 1008.09 1008.49 1008.86 1009.22 1009.57 1009.95 1010.36 1010.82 1011.34 1011.93 1012.58 1013.27 1013.99
1007.08 1006.99 1006.77 1006.43 1006.00 1005.50 1004.97 1004.46 1004.00 1003.61 1003.31 1003.11 1003.01 1003.00 1003.06 1003.17 1003.33 1003.50 1003.70 1003.92 1004.16 1004.44 1004.76 1005.13 1005.55 1006.01 1006.51 1007.03 1007.55 1008.05 1008.52 1008.95 1009.34 1009.71 1010.06 1010.42 1010.80 1011.22 1011.71 1012.25 1012.86 1013.52 1014.22
1007.02 1007.00 1006.86 1006.59 1006.23 1005.80 1005.34 1004.88 1004.47 1004.13 1003.87 1003.70 1003.62 1003.60 1003.65 1003.74 1003.85 1003.98 1004.13 1004.29 1004.49 1004.73 1005.02 1005.38 1005.79 1006.26 1006.78 1007.32 1007.87 1008.40 1008.90 1009.35 1009.75 1010.12 1010.47 1010.81 1011.16 1011.56 1012.01 1012.52 1013.09 1013.72 1014.39
1006.96 1007.03 1006.96 1006.77 1006.48 1006.12 1005.72 1005.32 1004.95 1004.65 1004.42 1004.26 1004.19 1004.17 1004.21 1004.28 1004.36 1004.47 1004.58 1004.71 1004.88 1005.09 1005.35 1005.69 1006.09 1006.55 1007.06 1007.59 1008.14 1008.67 1009.16 1009.62 1010.02 1010.38 1010.72 1011.04 1011.38 1011.75 1012.18 1012.66 1013.21 1013.81 1014.45
Thickness
5768 5765 5761 5757 5752 5747 5743 5740 5736 5733 5730 5725 5721 5718 5717 5716 5715 5714 5712 5711 5709 5707 5705 5703 5702 5701 5700 5699 5698 5696 5694 5693 5694 5691 5691 5694 5698 5699 5700 5701 5701 5701 5701
5762 5758 5755 5751 5746 5742 5738 5735 5731 5727 5724 5721 5717 5714 5712 5711 5711 5709 5708 5706 5704 5702 5702 5699 5698 5697 5696 5695 5693 5691 5688 5688 5688 5684 5681 5681 5686 5691 5696 5696 5696 5697 5697
5757 5753 5749 5746 5743 5738 5735 5731 5726 5722 5719 5717 5714 5710 5707 5705 5704 5702 5701 5701 5700 5698 5696 5695 5694 5693 5692 5690 5689 5687 5684 5682 5684 5683 5679 5675 5676 5681 5687 5691 5692 5693 5693
5757 5751 5747 5742 5739 5736 5733 5728 5723 5719 5715 5712 5708 5703 5698 5695 5696 5696 5696 5695 5695 5694 5692 5691 5690 5689 5688 5687 5686 5685 5682 5679 5677 5678 5680 5679 5679 5674 5675 5681 5686 5687 5687
5755 5749 5744 5741 5737 5734 5729 5724 5719 5714 5710 5707 5703 5699 5695 5693 5692 5692 5691 5690 5690 5689 5688 5687 5686 5685 5684 5683 5682 5680 5679 5676 5674 5674 5674 5674 5675 5676 5671 5670 5675 5679 5683
5753 5748 5743 5739 5733 5729 5724 5719 5714 5709 5705 5701 5699 5695 5691 5688 5686 5685 5684 5684 5684 5684 5683 5683 5682 5681 5680 5679 5678 5676 5674 5673 5671 5671 5671 5670 5669 5669 5669 5667 5668 5670 5675
5751 5744 5739 5733 5728 5724 5719 5715 5709 5704 5700 5697 5694 5691 5688 5685 5682 5681 5679 5679 5678 5677 5677 5677 5676 5676 5675 5674 5673 5672 5670 5669 5667 5666 5666 5667 5667 5668 5667 5664 5664 5665 5669
5748 5742 5737 5731 5726 5721 5716 5711 5705 5700 5696 5692 5689 5687 5684 5681 5679 5677 5676 5674 5673 5673 5673 5672 5672 5671 5670 5670 5669 5667 5666 5665 5663 5663 5662 5661 5662 5663 5663 5661 5659 5656 5659
5744 5739 5734 5729 5724 5719 5713 5708 5702 5696 5693 5689 5686 5683 5680 5678 5675 5674 5672 5670 5669 5669 5668 5667 5666 5666 5664 5664 5663 5662 5661 5660 5659 5658 5657 5656 5657 5658 5658 5658 5657 5652 5649
5739 5735 5730 5726 5722 5717 5711 5706 5700 5694 5690 5686 5682 5680 5676 5674 5672 5669 5667 5665 5664 5663 5663 5662 5661 5660 5659 5659 5658 5657 5656 5655 5654 5653 5651 5651 5651 5653 5652 5652 5653 5652 5649
5732 5730 5726 5722 5717 5712 5707 5700 5694 5690 5686 5683 5679 5675 5672 5670 5667 5664 5663 5661 5660 5659 5657 5656 5655 5654 5653 5653 5651 5650 5649 5648 5647 5647 5647 5646 5646 5646 5646 5647 5647 5647 5646
5727 5725 5721 5717 5712 5706 5700 5694 5689 5686 5683 5680 5676 5672 5668 5665 5663 5660 5658 5657 5655 5654 5652 5651 5649 5648 5648 5648 5645 5644 5643 5642 5642 5642 5641 5641 5642 5641 5641 5640 5641 5641 5643
5722 5720 5715 5710 5705 5700 5695 5689 5685 5682 5680 5677 5673 5668 5664 5660 5657 5656 5654 5653 5652 5650 5648 5646 5644 5643 5643 5642 5641 5639 5638 5637 5637 5638 5637 5637 5636 5635 5635 5635 5635 5636 5639
5715 5712 5706 5702 5699 5695 5690 5685 5682 5678 5676 5672 5668 5664 5660 5657 5655 5653 5651 5649 5648 5646 5645 5643 5642 5640 5638 5637 5636 5635 5633 5632 5633 5634 5634 5633 5632 5632 5631 5631 5631 5632 5633
5707 5704 5699 5695 5692 5689 5685 5682 5678 5675 5671 5667 5663 5659 5657 5655 5652 5649 5648 5646 5644 5644 5642 5640 5639 5638 5635 5633 5632 5630 5629 5628 5628 5629 5630 5630 5630 5630 5629 5629 5629 5629 5628
5701 5698 5694 5689 5686 5682 5679 5676 5672 5670 5667 5662 5659 5656 5654 5651 5649 5646 5645 5643 5641 5640 5639 5637 5635 5633 5632 5629 5627 5625 5623 5623 5623 5623 5625 5626 5626 5626 5626 5626 5627 5627 5626
5698 5693 5688 5684 5681 5678 5675 5671 5668 5665 5662 5658 5655 5652 5650 5648 5645 5644 5641 5639 5637 5636 5634 5633 5632 5630 5628 5625 5623 5621 5619 5619 5619 5619 5620 5622 5624 5624 5624 5624 5624 5624 5625
5692 5688 5684 5680 5677 5674 5671 5668 5665 5661 5657 5653 5651 5649 5646 5644 5642 5639 5637 5635 5634 5632 5631 5629 5628 5626 5625 5622 5619 5618 5617 5616 5616 5617 5618 5619 5620 5622 5621 5622 5622 5623 5625
5687 5683 5680 5675 5672 5668 5665 5662 5658 5655 5652 5649 5646 5645 5642 5639 5637 5635 5633 5632 5630 5629 5627 5627 5625 5624 5622 5620 5618 5615 5615 5614 5614 5615 5617 5618 5618 5619 5618 5618 5619 5620 5621
5682 5678 5675 5671 5666 5663 5660 5656 5652 5649 5646 5644 5642 5641 5638 5635 5633 5631 5629 5628 5626 5625 5625 5624 5623 5621 5620 5617 5615 5612 5613 5612 5613 5613 5615 5615 5615 5615 5615 5615 5615 5615 5617
5675 5672 5668 5664 5660 5658 5654 5650 5647 5644 5643 5641 5640 5637 5635 5632 5630 5628 5626 5624 5623 5622 5621 5621 5621 5619 5618 5615 5612 5609 5609 5609 5609 5610 5611 5611 5611 5611 5611 5611 5611 5612 5612
5669 5666 5661 5658 5656 5653 5649 5645 5642 5641 5640 5638 5636 5633 5631 5629 5628 5624 5622 5621 5620 5619 5618 5618 5617 5616 5614 5611 5608 5606 5605 5605 5605 5605 5606 5606 5606 5605 5605 5605 5607 5607 5607
5663 5659 5656 5652 5650 5648 5644 5640 5638 5638 5636 5633 5631 5629 5628 5626 5624 5621 5619 5618 5617 5615 5614 5613 5612 5611 5611 5608 5605 5602 5601 5600 5600 5600 5600 5599 5599 5600 5601 5601 5602 5602 5603
5657 5653 5649 5645 5643 5642 5639 5636 5635 5634 5632 5629 5627 5626 5624 5622 5620 5618 5617 5615 5614 5612 5611 5609 5608 5607 5606 5604 5601 5599 5597 5595 5594 5594 5594 5594 5595 5595 5596 5598 5598 5599 5601
5651 5648 5644 5640 5638 5637 5634 5633 5631 5629 5626 5624 5623 5622 5621 5619 5618 5616 5614 5613 5611 5609 5607 5606 5605 5602 5600 5598 5595 5593 5593 5591 5589 5587 5588 5590 5591 5592 5593 5595 5596 5597 5597
5644 5641 5638 5635 5633 5631 5629 5628 5627 5624 5621 5619 5618 5618 5618 5617 5617 5615 5613 5611 5608 5606 5604 5602 5600 5599 5597 5594 5592 5590 5588 5586 5584 5583 5585 5586 5587 5588 5589 5590 5592 5593 5593